Flag Island, MN

1:55 PM CDT on July 24, 2017 (GMT -0500)
Flag Island

Weather History for KFGN - February, 2014

Change the Weather History Date:

Thursday, February 20, 2014

  Actual Average Record
Temperature  
Mean Temperature 19 °F -  
Max Temperature 30 °F 18 °F 41 °F (2017)
Min Temperature 8 °F 2 °F -27 °F (2008)
Degree Days  
Heating Degree Days 46    
Moisture  
Dew Point 18 °F    
Average Humidity 85    
Maximum Humidity 93    
Minimum Humidity 74    
Precipitation  
Precipitation 0.00 in - - ()
Sea Level Pressure  
Sea Level Pressure 29.53 in    
Wind  
Wind Speed 13 mph (East)    
Max Wind Speed 23 mph    
Max Gust Speed 23 mph    
Visibility 8 miles    
Events Snow    
Averages and records for this station are not official NWS values.
T = Trace of Precipitation, MM = Missing Value Source: NWS Daily Summary

Daily Weather History Graph

Daily Weather History Graph

Search for Another Location

Airport or City:

Trip Planner

Search our weather history database for the weather conditions in past years. The results will help you decide how hot, cold, wet, or windy it might be!

Date:

Astronomy

Feb. 20, 2014 Rise Set
Actual Time 7:19 AM CST 5:47 PM CST
Civil Twilight 6:46 AM CST 6:20 PM CST
Nautical Twilight 6:09 AM CST 6:57 PM CST
Astronomical Twilight 5:33 AM CST 7:34 PM CST
Moon No Moon Rise 9:30 AM CST (2/20)
Length of Visible Light 11h 33m
Length of Day
10h 28m
Waning Gibbous, 70% of the Moon is Illuminated
Feb 20
Waning Gibbous
Feb 22
Last Quarter
Mar 1
New
Mar 8
First Quarter
Mar 16
Full

Hourly Weather History & Observations

Time (CST) Temp. Windchill Dew Point Humidity Pressure Visibility Wind Dir Wind Speed Gust Speed Precip Events Conditions
12:14 AM 23.0 °F 10.1 °F 19.4 °F 86% 29.56 in 1.2 mi East 15.0 mph 23.0 mph N/A Snow Light Snow
12:33 AM 23.0 °F 10.1 °F 21.2 °F 93% 29.55 in 2.0 mi East 15.0 mph 21.9 mph N/A Snow Light Snow
12:54 AM 23.0 °F 11.7 °F 21.2 °F 93% 29.54 in 10.0 mi East 11.5 mph 21.9 mph N/A Snow Light Snow
1:13 AM 24.8 °F 14.6 °F 21.2 °F 86% 29.55 in 10.0 mi East 10.4 mph 18.4 mph N/A   Overcast
1:33 AM 24.8 °F 14.0 °F 19.4 °F 80% 29.54 in 10.0 mi East 11.5 mph 19.6 mph N/A   Overcast
1:54 AM 24.8 °F 13.4 °F 19.4 °F 80% 29.54 in 10.0 mi East 12.7 mph 19.6 mph N/A   Overcast
2:13 AM 24.8 °F 14.0 °F 19.4 °F 80% 29.54 in 10.0 mi East 11.5 mph 18.4 mph N/A   Overcast
2:33 AM 24.8 °F 14.6 °F 19.4 °F 80% 29.54 in 10.0 mi East 10.4 mph 20.7 mph N/A   Overcast
2:54 AM 24.8 °F 13.4 °F 19.4 °F 80% 29.52 in 10.0 mi East 12.7 mph 19.6 mph N/A   Overcast
3:13 AM 24.8 °F 13.4 °F 19.4 °F 80% 29.51 in 10.0 mi East 12.7 mph 21.9 mph N/A   Overcast
3:33 AM 24.8 °F 14.0 °F 19.4 °F 80% 29.50 in 10.0 mi East 11.5 mph 21.9 mph N/A   Overcast
3:54 AM 24.8 °F 15.3 °F 19.4 °F 80% 29.50 in 10.0 mi East 9.2 mph 17.3 mph N/A   Overcast
4:13 AM 26.6 °F 16.2 °F 19.4 °F 74% 29.50 in 10.0 mi East 11.5 mph 19.6 mph N/A   Overcast
4:33 AM 26.6 °F 15.7 °F 19.4 °F 74% 29.49 in 10.0 mi ESE 12.7 mph 19.6 mph N/A   Overcast
4:53 AM 26.6 °F 15.2 °F 19.4 °F 74% 29.48 in 10.0 mi East 13.8 mph 19.6 mph N/A   Overcast
5:13 AM 26.6 °F 16.2 °F 19.4 °F 74% 29.47 in 10.0 mi East 11.5 mph 20.7 mph N/A   Overcast
5:34 AM 26.6 °F 15.7 °F 21.2 °F 80% 29.49 in 2.5 mi ESE 12.7 mph 17.3 mph N/A Snow Light Snow
5:53 AM 26.6 °F 15.2 °F 21.2 °F 80% 29.48 in 4.0 mi ESE 13.8 mph 19.6 mph N/A Snow Light Snow
6:13 AM 26.6 °F 15.7 °F 23.0 °F 86% 29.48 in 4.0 mi ESE 12.7 mph 18.4 mph N/A Snow Light Snow
6:34 AM 26.6 °F 16.2 °F 23.0 °F 86% 29.48 in 2.5 mi ESE 11.5 mph - N/A Snow Light Snow
6:53 AM 26.6 °F 16.8 °F 23.0 °F 86% 29.49 in 5.0 mi ESE 10.4 mph 17.3 mph N/A Snow Light Snow
7:13 AM 26.6 °F 15.7 °F 24.8 °F 93% 29.48 in 10.0 mi ESE 12.7 mph 18.4 mph N/A   Overcast
7:34 AM 26.6 °F 15.7 °F 24.8 °F 93% 29.49 in 10.0 mi ESE 12.7 mph 17.3 mph N/A   Overcast
7:53 AM 26.6 °F 18.2 °F 24.8 °F 93% 29.50 in 10.0 mi SSE 8.1 mph 19.6 mph N/A   Overcast
8:13 AM 28.4 °F 20.4 °F 26.6 °F 93% 29.49 in 10.0 mi ESE 8.1 mph - N/A   Overcast
8:34 AM 28.4 °F 20.4 °F 26.6 °F 93% 29.49 in 10.0 mi ESE 8.1 mph - N/A   Overcast
8:53 AM 28.4 °F 20.4 °F 26.6 °F 93% 29.49 in 10.0 mi ESE 8.1 mph - N/A   Overcast
9:13 AM 28.4 °F 21.2 °F 26.6 °F 93% 29.49 in 10.0 mi SE 6.9 mph - N/A   Overcast
9:33 AM 28.4 °F 19.7 °F 26.6 °F 93% 29.50 in 10.0 mi SE 9.2 mph - N/A   Overcast
9:53 AM 30.2 °F 20.2 °F 28.4 °F 93% 29.51 in 10.0 mi SSE 12.7 mph - N/A   Overcast
10:14 AM 30.2 °F 22.6 °F 26.6 °F 86% 29.50 in 10.0 mi South 8.1 mph - N/A   Overcast
10:33 AM 30.2 °F 22.6 °F 26.6 °F 86% 29.50 in 10.0 mi SSW 8.1 mph - N/A   Overcast
10:53 AM 30.2 °F 21.9 °F 26.6 °F 86% 29.51 in 7.0 mi SSW 9.2 mph - N/A   Overcast
11:14 AM 28.4 °F 21.2 °F 26.6 °F 93% 29.51 in 7.0 mi South 6.9 mph - N/A   Overcast
11:33 AM 28.4 °F 19.1 °F 26.6 °F 93% 29.51 in 7.0 mi South 10.4 mph - N/A   Overcast
11:53 AM 28.4 °F 19.1 °F 26.6 °F 93% 29.51 in 7.0 mi South 10.4 mph - N/A   Overcast
12:14 PM 26.6 °F 15.7 °F 24.8 °F 93% 29.52 in 4.0 mi South 12.7 mph - N/A   Overcast
12:33 PM 26.6 °F 15.7 °F 24.8 °F 93% 29.53 in 4.0 mi South 12.7 mph - N/A   Overcast
12:53 PM 26.6 °F 18.2 °F 24.8 °F 93% 29.53 in 5.0 mi South 8.1 mph - N/A   Overcast
1:14 PM 26.6 °F 19.1 °F 24.8 °F 93% 29.53 in 7.0 mi South 6.9 mph - N/A   Overcast
1:33 PM 26.6 °F 18.2 °F 24.8 °F 93% 29.53 in 7.0 mi SSW 8.1 mph - N/A   Overcast
1:53 PM 28.4 °F 22.2 °F 24.8 °F 86% 29.53 in 10.0 mi SW 5.8 mph - N/A   Overcast
2:14 PM 26.6 °F 13.8 °F 23.0 °F 86% 29.53 in 10.0 mi WNW 17.3 mph - N/A   Overcast
2:33 PM 26.6 °F 14.7 °F 21.2 °F 80% 29.53 in 10.0 mi WNW 15.0 mph - N/A   Overcast
2:54 PM 24.8 °F 11.9 °F 21.2 °F 86% 29.53 in 10.0 mi WNW 16.1 mph - N/A   Overcast
3:13 PM 24.8 °F 11.9 °F 21.2 °F 86% 29.54 in 10.0 mi WNW 16.1 mph - N/A   Overcast
3:33 PM 23.0 °F 9.2 °F 19.4 °F 86% 29.54 in 10.0 mi WNW 17.3 mph - N/A   Overcast
3:54 PM 23.0 °F 10.1 °F 19.4 °F 86% 29.55 in 10.0 mi WNW 15.0 mph - N/A   Overcast
4:13 PM 21.2 °F 7.8 °F 17.6 °F 86% 29.56 in 10.0 mi WNW 15.0 mph - N/A   Overcast
4:34 PM 21.2 °F 7.3 °F 17.6 °F 86% 29.56 in 10.0 mi WNW 16.1 mph - N/A   Overcast
4:53 PM 21.2 °F 7.3 °F 17.6 °F 86% 29.57 in 10.0 mi NW 16.1 mph - N/A   Overcast
5:14 PM 19.4 °F 5.0 °F 15.8 °F 86% 29.57 in 10.0 mi NW 16.1 mph - N/A   Overcast
5:33 PM 19.4 °F 4.5 °F 14.0 °F 80% 29.58 in 10.0 mi NW 17.3 mph - N/A   Overcast
5:54 PM 17.6 °F 1.7 °F 12.2 °F 79% 29.59 in 10.0 mi NW 18.4 mph - N/A   Overcast
6:13 PM 17.6 °F 0.9 °F 12.2 °F 79% 29.59 in 10.0 mi NW 20.7 mph - N/A   Overcast
6:33 PM 15.8 °F -0.6 °F 10.4 °F 79% 29.59 in 10.0 mi NW 18.4 mph - N/A   Overcast
6:54 PM 15.8 °F -1.5 °F 10.4 °F 79% 29.59 in 10.0 mi NW 20.7 mph - N/A   Overcast
7:13 PM 14.0 °F -3.9 °F 8.6 °F 79% 29.59 in 10.0 mi NW 20.7 mph - N/A   Overcast
7:33 PM 12.2 °F -5.3 °F 8.6 °F 85% 29.59 in 10.0 mi NW 18.4 mph - N/A   Overcast
7:53 PM 12.2 °F -6.3 °F 8.6 °F 85% 29.58 in 10.0 mi NW 20.7 mph - N/A   Overcast
8:13 PM 12.2 °F -6.7 °F 6.8 °F 79% 29.57 in 10.0 mi NW 21.9 mph - N/A   Overcast
8:33 PM 10.4 °F -9.1 °F 6.8 °F 85% 29.56 in 10.0 mi NW 21.9 mph - N/A   Overcast
8:54 PM 10.4 °F -9.1 °F 6.8 °F 85% 29.56 in 10.0 mi NW 21.9 mph - N/A   Overcast
9:13 PM 10.4 °F -9.5 °F 5.0 °F 79% 29.56 in 10.0 mi NW 23.0 mph - N/A   Overcast
9:33 PM 8.6 °F -11.4 °F 5.0 °F 85% 29.56 in 10.0 mi NW 21.9 mph - N/A   Overcast
9:54 PM 8.6 °F -10.0 °F 5.0 °F 85% 29.55 in 10.0 mi NW 18.4 mph - N/A   Overcast
10:13 PM 8.6 °F -11.0 °F 5.0 °F 85% 29.54 in 10.0 mi NW 20.7 mph - N/A   Overcast
10:33 PM 8.6 °F -11.0 °F 5.0 °F 85% 29.54 in 7.0 mi NW 20.7 mph - N/A   Overcast
10:54 PM 8.6 °F -11.0 °F 5.0 °F 85% 29.53 in 7.0 mi NW 20.7 mph - N/A   Overcast
11:13 PM 8.6 °F -10.5 °F 5.0 °F 85% 29.53 in 4.0 mi NW 19.6 mph - N/A Snow Light Snow
11:33 PM 8.6 °F -10.0 °F 5.0 °F 85% 29.52 in 4.0 mi NW 18.4 mph - N/A Snow Light Snow
11:54 PM 8.6 °F -10.0 °F 5.0 °F 85% 29.51 in 1.8 mi NW 18.4 mph - N/A Snow Light Snow